Wind_Speed
28 29 27 25 25 24 24 22 20 20 19 23 30 33 32 28 29 32 33 33 33 33 37 39 36 29 25 24 25 28 29 29 31 31 32 33 34 34 33 33 33 33 33 34
29 27 23 24 23 23 25 28 28 27 26 27 29 32 35 36 34 32 36 38 37 36 40 42 40 35 31 27 28 31 33 34 36 37 37 38 38 39 39 38 38 38 38 38
24 17 19 23 23 23 25 27 29 30 31 33 34 36 38 42 39 37 38 42 43 39 41 44 42 39 36 33 31 33 36 38 39 40 41 42 43 43 44 43 43 43 42 41
20 19 19 20 21 21 24 25 27 29 31 33 33 36 36 36 33 32 33 38 42 38 39 43 43 41 38 35 33 35 37 39 41 42 44 45 47 47 47 47 47 47 44 43
17 18 19 18 17 19 19 19 21 23 27 32 33 37 36 32 29 31 30 33 39 38 36 39 39 40 39 35 34 36 38 40 42 44 47 48 49 49 49 49 48 46 43 43
20 18 19 18 17 17 16 17 20 22 24 29 27 29 32 28 27 29 26 30 34 34 34 35 36 37 37 36 35 37 39 41 43 45 47 49 50 49 49 49 47 45 45 44
21 21 21 20 20 19 19 18 18 19 21 21 17 21 22 20 21 25 26 29 31 32 36 37 35 35 36 35 36 37 40 42 43 45 47 48 49 48 47 46 46 46 46 46
22 23 22 25 25 21 20 21 19 18 19 18 16 17 16 17 19 24 29 33 36 38 39 38 36 35 35 35 36 38 40 41 43 44 45 46 46 44 44 45 45 47 48 48
20 20 21 24 26 25 21 23 20 21 21 23 23 23 21 20 23 25 27 29 32 34 33 32 32 33 34 35 36 37 38 39 40 41 42 43 44 44 44 46 47 48 50 51
30 29 20 18 22 25 23 21 22 24 24 25 23 20 18 19 21 22 24 26 29 29 27 27 30 33 35 35 36 37 37 38 40 41 42 43 44 45 46 47 47 50 52 52
35 35 28 19 21 21 21 21 22 24 25 25 25 21 18 22 24 24 23 25 30 30 29 30 32 32 33 34 36 36 37 38 40 42 44 45 45 47 47 48 49 51 52 52
36 38 37 32 27 22 23 25 25 27 27 27 29 27 24 29 30 29 28 30 37 37 33 31 31 31 32 33 34 36 38 40 42 44 45 46 48 49 51 51 50 51 52 52
41 41 39 35 31 28 26 27 28 30 30 30 28 25 27 32 32 34 36 39 38 32 28 28 29 30 32 33 34 36 39 41 44 46 47 50 52 53 53 52 51 52 53 55
38 41 39 34 25 24 30 32 31 29 29 30 29 29 34 36 37 39 40 36 31 25 25 27 29 32 34 35 37 38 41 44 46 49 51 53 54 54 54 54 53 54 57 60
39 41 40 39 36 33 26 27 30 32 31 28 26 28 34 35 37 39 37 33 28 26 27 30 33 35 37 38 40 42 45 48 51 54 55 55 54 55 56 56 57 59 62 60
37 39 40 40 39 40 39 36 32 31 28 27 28 32 40 42 42 42 40 38 39 38 38 38 39 40 42 44 45 48 50 53 55 56 55 54 55 56 58 60 61 61 60 57
34 35 37 38 38 38 41 41 40 40 38 41 42 45 46 46 46 46 48 48 48 47 46 45 45 46 47 48 50 52 54 55 55 55 54 54 56 59 61 60 58 56 53 49
34 34 35 36 37 40 37 34 38 40 43 45 45 45 45 44 43 44 46 48 49 48 48 48 48 49 49 50 51 52 53 52 51 51 52 54 57 59 59 57 54 50 46 45
33 33 34 34 35 36 31 35 39 41 45 44 44 43 44 43 44 44 45 46 47 47 47 47 46 46 46 47 47 48 48 48 49 51 52 54 57 57 54 50 46 44 45 46
28 30 31 32 33 33 35 37 38 38 41 41 41 40 40 40 42 42 43 44 44 45 44 44 44 43 44 44 44 44 45 46 48 50 53 54 52 48 45 43 43 44 45 46
24 25 27 28 30 31 35 37 37 39 42 40 39 38 37 38 39 39 40 40 40 41 41 42 41 41 41 40 39 40 41 44 46 48 48 45 43 41 40 40 42 44 45 46
26 25 25 26 28 32 34 35 37 39 39 38 37 36 36 35 35 35 35 35 35 36 36 36 36 35 34 34 35 37 40 42 43 43 41 39 38 39 40 41 43 44 45 45
25 26 26 26 28 30 31 33 34 35 36 35 35 35 35 34 34 33 32 32 31 31 30 29 28 28 29 31 35 37 39 39 39 37 35 36 37 38 40 42 43 43 42 40
21 21 23 25 27 30 32 32 32 33 34 35 35 35 35 34 33 32 30 29 28 27 26 25 25 26 29 32 34 36 35 34 32 32 34 36 37 39 41 41 41 39 36 32
21 21 21 24 27 30 32 32 32 33 34 35 35 35 34 33 31 29 27 26 25 23 22 23 24 26 29 29 29 28 28 28 31 33 35 36 37 38 38 36 34 31 27 25
22 23 23 24 27 27 28 28 28 28 28 29 30 30 29 29 27 25 23 21 20 19 19 21 24 26 25 24 23 24 26 29 31 33 34 35 36 34 32 29 26 24 22 20
Wind_Direction
233 234 235 236 237 236 230 228 237 251 256 247 250 252 253 246 249 260 260 261 266 270 275 279 280 288 283 281 281 283 287 290 289 289 289 291 292 291 291 288 286 287 288 289
233 235 237 235 234 237 235 230 227 228 227 231 238 249 254 251 242 249 264 267 266 268 271 275 278 286 283 277 276 277 280 283 284 286 287 288 290 290 291 288 285 284 283 284
232 228 234 233 229 234 240 242 239 239 238 235 236 244 251 259 262 256 254 264 269 270 269 273 274 279 279 274 274 275 276 278 279 282 284 286 288 288 289 289 287 284 281 281
217 211 228 233 233 235 243 247 247 244 245 245 245 254 259 268 277 275 267 263 268 273 272 272 274 275 274 269 269 272 274 275 276 279 281 283 285 287 289 290 288 286 285 286
205 211 224 236 234 235 244 248 250 252 255 257 252 255 259 262 264 267 274 269 265 271 274 273 270 268 270 267 268 270 272 273 274 275 278 281 284 287 289 290 289 289 291 291
205 215 231 233 242 245 246 250 254 256 258 263 270 270 272 267 261 266 272 266 265 270 271 269 268 267 266 267 269 270 271 271 272 275 278 282 286 288 289 290 290 291 292 292
215 215 228 239 238 248 256 260 264 268 273 284 295 287 289 285 266 253 250 251 258 264 267 267 267 267 266 267 269 270 271 273 275 278 281 284 286 287 287 288 289 291 292 293
233 237 235 244 251 253 257 264 264 257 257 265 265 272 278 268 253 247 248 253 261 266 269 270 269 266 265 267 269 270 272 275 278 282 284 286 286 287 287 287 289 290 292 294
227 245 257 257 260 261 244 250 264 269 268 264 260 256 257 278 281 272 266 265 269 269 270 268 265 262 262 264 266 269 272 276 279 282 284 285 286 286 286 288 290 291 293 295
216 220 218 240 245 258 260 252 247 252 260 266 270 271 273 265 264 264 262 261 259 261 269 272 266 262 262 263 265 268 272 275 278 280 282 284 286 287 289 290 292 293 294 296
221 220 210 210 232 245 256 260 253 250 249 257 266 267 268 267 263 264 271 273 269 270 277 274 268 265 263 264 266 270 273 275 277 280 283 285 288 289 289 291 293 294 295 295
226 226 225 221 223 238 250 251 251 255 259 259 259 261 262 262 261 260 259 260 265 270 275 271 268 265 265 266 268 271 273 276 278 281 284 287 290 291 291 292 293 294 293 292
232 237 239 238 236 236 242 247 248 250 250 252 255 262 266 263 263 265 263 260 259 262 268 270 268 267 268 270 271 273 275 278 280 283 287 290 293 293 292 292 292 292 292 291
239 244 245 243 237 240 237 237 240 244 246 251 254 255 255 259 264 267 266 262 257 262 271 272 270 269 271 272 274 276 279 281 285 288 292 294 296 293 291 291 292 294 293 292
242 244 245 244 234 231 238 241 245 241 231 233 242 255 258 257 258 264 267 266 275 284 283 279 277 275 276 276 278 280 283 286 289 292 295 296 296 292 289 291 293 293 292 292
245 246 247 247 244 237 236 238 241 249 256 257 256 262 257 257 259 265 272 279 286 288 285 283 282 281 281 282 283 284 286 288 291 294 295 295 292 289 288 290 290 291 291 294
256 253 251 251 250 247 244 244 245 248 253 254 254 254 258 262 264 268 273 277 279 280 282 283 283 282 282 282 283 284 286 288 290 292 292 291 290 288 289 290 291 293 295 298
255 255 254 253 252 252 256 252 249 249 249 253 257 262 266 269 270 272 274 276 279 282 283 283 282 281 281 281 282 284 285 287 289 290 289 289 288 289 290 291 294 298 301 303
255 255 255 254 253 255 251 249 251 252 254 258 261 264 267 270 272 272 275 277 279 281 282 283 283 282 282 282 282 283 285 286 288 288 287 288 289 291 293 297 301 303 304 303
256 256 255 254 253 251 246 248 252 255 258 260 262 265 267 269 271 273 275 277 279 280 281 282 282 282 282 282 283 284 285 286 286 286 287 289 291 296 301 304 304 303 303 303
258 260 258 255 253 247 249 250 251 251 257 263 266 268 269 270 272 275 276 278 279 280 281 281 281 282 283 284 284 284 284 285 286 288 291 296 301 304 304 303 303 303 304 307
259 261 259 257 254 249 252 252 253 257 262 265 268 269 271 272 274 276 278 279 280 281 282 282 283 284 284 283 283 284 284 287 291 296 301 305 306 306 305 305 306 308 309 311
255 256 257 257 258 259 258 258 260 262 265 268 269 270 270 272 274 276 278 279 281 282 284 285 286 285 285 284 286 289 292 296 300 302 305 306 306 307 308 309 310 311 313 313
259 258 257 257 258 262 264 265 267 268 269 269 269 269 269 270 272 274 276 278 279 280 283 286 286 287 287 288 290 294 297 302 305 306 307 308 309 310 311 312 313 314 315 316
265 265 262 262 263 265 269 271 271 271 270 269 268 267 266 266 267 269 272 274 277 281 285 286 288 290 293 296 299 302 305 308 309 310 310 311 312 313 315 316 318 319 320 321
269 270 269 267 267 268 269 271 271 270 270 268 267 265 262 260 261 263 266 270 275 279 284 287 289 292 298 304 309 311 312 312 312 313 313 315 317 319 321 323 324 326 328 329
Height
5825 5828 5831 5836 5839 5842 5845 5848 5854 5858 5861 5862 5862 5861 5863 5865 5865 5863 5863 5864 5864 5863 5859 5854 5851 5851 5850 5851 5853 5852 5851 5851 5850 5849 5848 5846 5845 5843 5842 5840 5837 5834 5832 5829
5820 5824 5828 5830 5833 5836 5839 5841 5845 5850 5853 5855 5856 5855 5853 5854 5857 5857 5855 5855 5856 5857 5853 5849 5847 5845 5845 5845 5847 5847 5846 5845 5844 5843 5842 5840 5838 5837 5835 5832 5830 5827 5824 5821
5816 5821 5822 5825 5828 5832 5835 5837 5840 5843 5845 5846 5847 5846 5846 5846 5849 5850 5850 5847 5848 5850 5846 5842 5840 5839 5839 5839 5840 5840 5839 5838 5837 5836 5835 5833 5831 5829 5827 5824 5821 5818 5815 5812
5811 5815 5819 5821 5824 5827 5829 5831 5833 5834 5836 5837 5840 5838 5840 5840 5840 5840 5841 5840 5839 5841 5838 5834 5833 5832 5832 5832 5832 5833 5832 5831 5829 5828 5827 5825 5822 5820 5818 5815 5811 5808 5805 5803
5808 5812 5815 5817 5819 5822 5823 5825 5827 5828 5829 5830 5831 5830 5831 5834 5835 5834 5834 5833 5831 5831 5830 5826 5825 5824 5824 5824 5826 5825 5824 5822 5822 5820 5819 5816 5813 5811 5808 5804 5801 5798 5795 5793
5804 5809 5812 5814 5816 5816 5818 5820 5821 5821 5823 5822 5824 5824 5823 5827 5829 5830 5829 5825 5822 5821 5819 5816 5816 5817 5817 5817 5817 5817 5816 5814 5813 5812 5810 5807 5804 5801 5798 5795 5791 5788 5785 5783
5800 5803 5807 5809 5811 5812 5813 5815 5816 5816 5816 5817 5819 5818 5818 5820 5821 5822 5821 5818 5815 5813 5810 5809 5809 5809 5808 5808 5808 5808 5807 5806 5805 5803 5801 5799 5795 5792 5789 5785 5782 5778 5774 5772
5796 5799 5802 5804 5805 5807 5808 5809 5812 5813 5815 5816 5817 5816 5816 5813 5813 5813 5813 5812 5809 5807 5804 5803 5802 5801 5800 5799 5799 5799 5798 5797 5796 5794 5792 5789 5785 5782 5779 5775 5772 5768 5763 5760
5792 5797 5799 5798 5799 5801 5803 5804 5806 5807 5807 5807 5808 5809 5811 5809 5806 5805 5805 5804 5801 5797 5796 5796 5795 5793 5792 5791 5791 5790 5790 5789 5787 5785 5782 5779 5776 5773 5769 5765 5762 5758 5753 5748
5784 5787 5791 5793 5795 5795 5796 5799 5801 5801 5802 5801 5802 5803 5806 5804 5800 5797 5795 5794 5791 5788 5788 5788 5786 5784 5784 5783 5783 5783 5782 5781 5779 5776 5773 5770 5766 5763 5759 5755 5751 5746 5741 5736
5776 5780 5785 5789 5791 5792 5793 5793 5794 5795 5797 5797 5796 5800 5798 5794 5793 5792 5790 5787 5783 5783 5781 5780 5778 5777 5777 5776 5776 5775 5774 5772 5769 5767 5764 5760 5756 5752 5748 5744 5739 5734 5729 5723
5769 5772 5775 5780 5784 5787 5788 5788 5789 5789 5788 5788 5788 5792 5790 5786 5785 5783 5782 5778 5774 5774 5774 5773 5771 5771 5770 5769 5768 5766 5764 5762 5760 5757 5753 5749 5745 5741 5736 5732 5727 5721 5716 5710
5760 5763 5768 5772 5777 5780 5780 5780 5781 5781 5781 5780 5781 5785 5778 5776 5776 5775 5773 5769 5766 5765 5765 5765 5765 5764 5763 5761 5760 5757 5755 5752 5749 5746 5742 5738 5733 5728 5723 5718 5713 5707 5702 5696
5753 5755 5760 5765 5770 5769 5770 5770 5771 5772 5773 5773 5774 5774 5768 5767 5767 5764 5762 5757 5753 5755 5757 5758 5757 5756 5754 5753 5750 5748 5745 5741 5738 5734 5730 5725 5720 5715 5709 5704 5698 5693 5687 5682
5742 5746 5749 5752 5757 5759 5759 5761 5762 5761 5760 5761 5763 5759 5756 5757 5756 5754 5752 5749 5747 5748 5750 5750 5749 5747 5745 5743 5740 5737 5733 5729 5725 5721 5717 5712 5707 5702 5696 5690 5685 5679 5673 5667
5732 5736 5738 5742 5746 5748 5750 5752 5754 5754 5753 5752 5753 5750 5744 5745 5747 5746 5745 5741 5739 5741 5740 5740 5739 5737 5735 5732 5729 5725 5721 5717 5713 5709 5704 5699 5694 5688 5682 5677 5671 5665 5659 5653
5723 5727 5730 5732 5735 5736 5739 5743 5744 5745 5744 5742 5740 5737 5737 5739 5740 5739 5737 5734 5732 5731 5730 5729 5727 5725 5723 5720 5717 5713 5709 5706 5701 5697 5692 5687 5682 5676 5670 5664 5658 5652 5646 5641
5715 5717 5720 5722 5725 5726 5732 5732 5731 5732 5728 5729 5729 5729 5730 5730 5731 5730 5728 5724 5722 5720 5719 5717 5715 5713 5710 5708 5704 5701 5697 5694 5690 5685 5680 5675 5670 5664 5658 5652 5646 5641 5635 5630
5706 5709 5710 5713 5714 5717 5720 5718 5719 5720 5716 5720 5720 5721 5721 5720 5719 5719 5718 5715 5712 5710 5707 5705 5703 5700 5698 5695 5692 5689 5686 5682 5678 5673 5668 5663 5658 5653 5647 5641 5635 5630 5625 5620
5698 5700 5702 5704 5705 5707 5706 5708 5709 5710 5706 5709 5710 5711 5711 5710 5708 5708 5706 5704 5702 5699 5697 5694 5692 5689 5686 5684 5681 5678 5675 5671 5667 5662 5657 5652 5646 5641 5635 5630 5625 5620 5615 5610
5692 5693 5694 5695 5696 5697 5696 5698 5699 5700 5697 5699 5700 5700 5700 5699 5697 5697 5695 5693 5691 5689 5686 5684 5681 5679 5676 5674 5671 5668 5665 5661 5657 5652 5646 5640 5635 5630 5626 5621 5616 5611 5605 5599
5686 5686 5687 5687 5687 5688 5687 5688 5690 5689 5689 5689 5690 5689 5689 5688 5686 5686 5685 5683 5681 5679 5677 5674 5672 5669 5667 5665 5662 5658 5655 5651 5646 5641 5636 5631 5626 5621 5617 5612 5606 5599 5593 5587
5679 5680 5680 5681 5681 5679 5679 5679 5680 5680 5680 5680 5680 5679 5679 5678 5677 5677 5676 5674 5673 5671 5669 5667 5664 5662 5660 5657 5654 5650 5646 5642 5637 5632 5628 5623 5618 5613 5607 5601 5595 5589 5583 5577
5672 5673 5674 5674 5673 5672 5671 5671 5672 5672 5672 5671 5670 5670 5669 5669 5669 5668 5668 5667 5665 5663 5662 5660 5658 5656 5654 5650 5647 5643 5638 5634 5629 5624 5620 5615 5610 5604 5597 5591 5585 5579 5573 5568
5667 5667 5668 5668 5667 5666 5664 5664 5664 5663 5662 5661 5660 5659 5659 5660 5660 5660 5660 5659 5658 5658 5657 5655 5653 5650 5647 5644 5639 5635 5631 5627 5623 5618 5613 5607 5601 5595 5589 5582 5576 5571 5565 5561
5661 5662 5662 5661 5660 5659 5657 5655 5655 5653 5652 5652 5651 5650 5650 5651 5652 5653 5654 5654 5653 5653 5652 5650 5648 5645 5642 5638 5634 5630 5626 5621 5616 5611 5605 5600 5594 5587 5581 5575 5570 5564 5560 5556